Regional Weather Roundup
Issued by NWS Sterling, VA

Home | Current Version | Previous Version | Text Only | Print | Product List | Glossary On
Versions: 1 2 3 4 5 6 7 8 9 10 11 12 13 14 15 16 17 18 19 20 21 22 23 24 25 26 27 28 29 30 31 32 33 34 35 36 37 38 39 40 41 42 43 44 45 46 47 48 49 50
000
ASUS41 KLWX 020010
RWRLWX

REGIONAL WEATHER ROUNDUP
NATIONAL WEATHER SERVICE BALTIMORE MD/WASHINGTON DC
800 PM EDT WED JUL 01 2015

Note: "FAIR" indicates few or no clouds below 12,000 feet
with no significant weather and/or obstructions to visibility.
 TC=TEMPERATURE CELSIUS

 * =Non NWS site. Station does not report precipitation (e.g. rain,
    snow, etc.), thunder, or fog.

DCZ001-MDZ009-015-VAZ040>042-051-053>054-020100-
WASHINGTON METRO

CITY           SKY/WX    TMP DP  RH WIND       PRES   REMARKS
WASHINGTON NAT TSTM      73  64  73 S17G26    29.87R
DULLES         PTCLDY    80  62  54 NW9       29.86R
ANDREWS AFB    TSTM      75  72  88 N3        29.85R
FT BELVOIR     MOCLDY    78  68  71 VRB3      29.86R
QUANTICO       CLEAR     83  66  56 W9        29.85R
COLLEGE PARK*  PTCLDY    81  68  65 CALM      29.84S
LEESBURG*      CLEAR     79  63  57 NW7       29.88R
MANASSAS*      PTCLDY    81  70  69 CALM      29.85R
GAITHERSBURG*  CLEAR     77  63  61 NW3       29.90R

$$

MDZ006>007-011-014-020100-
BALTIMORE METRO

CITY           SKY/WX    TMP DP  RH WIND       PRES   REMARKS
BWI AIRPORT    MOCLDY    80  68  66 S3        29.84R
MD SCIENCE CTR   N/A     83  62  49 MISG      29.83R
MARTIN STATE   MOCLDY    81  66  61 W6        29.86R
ANNAPOLIS      PTCLDY    79  66  64 SW5       29.84R
FORT MEADE*    MOCLDY    73  70  88 CALM      29.87R

$$

MDZ012-015-019>023-020100-
MARYLAND EASTERN SHORE

CITY           SKY/WX    TMP DP  RH WIND       PRES   REMARKS
OCEAN CITY     CLEAR     80  68  66 W7        29.86R
SALISBURY      CLEAR     80  70  71 S3        29.86R
BAY BRIDGE AP*   N/A     79  64  61 SW12      29.85R
CAMBRIDGE*     CLEAR     81  68  65 CALM      29.85R

$$

MDZ017>025-020100-
SOUTHERN MARYLAND

CITY           SKY/WX    TMP DP  RH WIND       PRES   REMARKS
PATUXENT RIVER PTCLDY    81  68  64 SW5       29.85R
ST INIGOES     CLEAR     82  67  60 SW8       29.85R
LEONARDTOWN*   CLEAR     79  64  61 CALM      29.88R

$$

MDZ003>005-020100-
NORTH CENTRAL MARYLAND

CITY           SKY/WX    TMP DP  RH WIND       PRES   REMARKS
FREDERICK*     CLEAR     79  66  65 NW6       29.89R
HAGERSTOWN APT CLEAR     77  58  51 W6        29.88R
WESTMINSTER*   CLEAR     79  61  53 W5        29.88R

$$

MDZ501>502-020100-
WESTERN MARYLAND

CITY           SKY/WX    TMP DP  RH WIND       PRES   REMARKS
OAKLAND*       PTCLDY    64 N/A N/A W6        30.00R
CUMBERLAND*    CLEAR     77  55  47 W6        29.93R

$$

VAZ025>031-020100-
SHENANDOAH VALLEY

CITY           SKY/WX    TMP DP  RH WIND       PRES   REMARKS
WINCHESTER*    CLEAR     79  59  50 NW6       29.88R
FRONT ROYAL*   FAIR      77  64  65 CALM      29.87R
LURAY*         FAIR      81  66  61 CALM      29.89R
NEW MARKET*    FAIR      71  67  84 CALM      29.87R
STAUNTON*      CLEAR     80  59  48 W6        29.92S
WAYNESBORO*    FAIR      77  60  55 SW3       29.92S

$$

WVZ021-048>050-054>055-020100-
EASTERN WEST VIRGINIA PANHANDLE

CITY           SKY/WX    TMP DP  RH WIND       PRES   REMARKS
MARTINSBURG    CLEAR     79  60  52 NW5       29.88R
PETERSBURG*    CLEAR     75  58  56 CALM      29.92R

$$

VAZ036>039-050-020100-
CENTRAL FOOTHILLS

CITY           SKY/WX    TMP DP  RH WIND       PRES   REMARKS
CHARLOTTESVILL CLEAR     78  66  66 S6        29.87R
CULPEPER*      PTCLDY    80  68  66 S3        29.87R
ORANGE*        CLEAR     81  68  65 S6        29.88R
GORDONSVILLE*  FAIR      79  68  69 SW3       29.86R
WARRENTON*     FAIR      79  73  83 CALM      29.86R

$$

VAZ055>057-020100-
NORTH AND CENTRAL PIEDMONT

CITY           SKY/WX    TMP DP  RH WIND       PRES   REMARKS
FREDERICKSBRG* MOCLDY    83  71  67 S6        29.85R
STAFFORD*      PTCLDY    77  70  80 CALM      29.90R

$$

NCZ024-NYZ072-PAZ021-071-VAZ022-071-020100-
OTHER REGIONAL OBSERVATIONS

CITY           SKY/WX    TMP DP  RH WIND       PRES   REMARKS
NEW YORK CITY  PTCLDY    81  57  43 VRB7      29.82R
PHILADELPHIA   MOCLDY    83  59  44 W9        29.84R
PITTSBURGH     PTCLDY    73  58  59 SW6       29.91R
ROANOKE        CLOUDY    78  64  61 W8        29.94R
RICHMOND       PTCLDY    82  68  62 S9        29.89R
RALEIGH        CLOUDY    82  69  64 S7        29.93R

$$

ANZ530>537-020100-
MARINE OBSERVATIONS

STATION/POSITION TIME  TEMP    WIND        PRES
                       AIR SEA DIR/SP/G
                 (UTC) (F)     (DEG/KT/KT) (MB)
THOMAS PT LIGHT  NOT AVBL
BALT KEY BRIDGE  2300   83     250/  7/  8 1009.8R
COVE POINT       2300   83     230/ 10/ 12 1011.0S
LEWISETTA        2300   83 83  190/  5/  6 1010.5R
SOLOMONS ISLAND  2300      79                N/A
PINEY POINT      2300          260/  4/  6   N/A

$$



USA.gov is the U.S. government's official web portal to all federal, state and local government web resources and services.